Time,TemperatureF,DewpointF,PressureIn,WindDirection,WindDirectionDegrees,WindSpeedMPH,WindSpeedGustMPH,Humidity,HourlyPrecipIn,Conditions,Clouds,dailyrainin,SolarRadiationWatts/m^2,SoftwareType,DateUTC
2015-03-05 00:22:00,7.0,-1.0,-100.00,WNW,285,2.0,7.0,69,-99.99,,,0.00,0.000000,,2015-03-05 07:22:00,
2015-03-05 00:32:00,7.0,-1.0,-100.00,WNW,285,2.0,7.0,69,-99.99,,,0.00,0.000000,,2015-03-05 07:32:00,
2015-03-05 00:42:00,7.0,-1.0,-100.00,WNW,285,2.0,7.0,69,-99.99,,,0.00,0.000000,,2015-03-05 07:42:00,
2015-03-05 00:52:00,5.0,0.0,-100.00,WNW,287,1.0,6.0,78,0.00,,,0.00,0.000000,,2015-03-05 07:52:00,
2015-03-05 01:22:00,5.0,0.0,-100.00,WNW,287,1.0,6.0,78,0.00,,,0.00,0.000000,,2015-03-05 08:22:00,
2015-03-05 01:32:00,5.0,0.0,-100.00,WNW,287,1.0,6.0,78,0.00,,,0.00,0.000000,,2015-03-05 08:32:00,
2015-03-05 01:42:00,5.0,0.0,-100.00,WNW,287,1.0,6.0,78,0.00,,,0.00,0.000000,,2015-03-05 08:42:00,
2015-03-05 01:52:00,8.0,1.0,-100.00,SW,229,4.0,10.0,73,0.00,,,0.00,0.000000,,2015-03-05 08:52:00,
2015-03-05 02:22:00,8.0,1.0,-100.00,SW,229,4.0,10.0,73,0.00,,,0.00,0.000000,,2015-03-05 09:22:00,
2015-03-05 02:32:00,8.0,1.0,-100.00,SW,229,4.0,10.0,73,0.00,,,0.00,0.000000,,2015-03-05 09:32:00,
2015-03-05 02:43:00,8.0,1.0,-100.00,SW,229,4.0,10.0,73,0.00,,,0.00,0.000000,,2015-03-05 09:43:00,
2015-03-05 02:52:00,7.0,1.0,-100.00,SW,220,4.0,12.0,75,0.00,,,0.00,0.000000,,2015-03-05 09:52:00,
2015-03-05 03:23:00,7.0,1.0,-100.00,SW,220,4.0,12.0,75,0.00,,,0.00,0.000000,,2015-03-05 10:23:00,
2015-03-05 03:33:00,7.0,1.0,-100.00,SW,220,4.0,12.0,75,0.00,,,0.00,0.000000,,2015-03-05 10:33:00,
2015-03-05 03:43:00,7.0,1.0,-100.00,SW,220,4.0,12.0,75,0.00,,,0.00,0.000000,,2015-03-05 10:43:00,
2015-03-05 03:52:00,8.0,3.0,-100.00,SSE,162,4.0,14.0,78,0.00,,,0.00,0.000000,,2015-03-05 10:52:00,
2015-03-05 04:23:00,8.0,3.0,-100.00,SSE,162,4.0,14.0,78,0.00,,,0.00,0.000000,,2015-03-05 11:23:00,
2015-03-05 04:33:00,8.0,3.0,-100.00,SSE,162,4.0,14.0,78,0.00,,,0.00,0.000000,,2015-03-05 11:33:00,
2015-03-05 04:42:00,8.0,3.0,-100.00,SSE,162,4.0,14.0,78,0.00,,,0.00,0.000000,,2015-03-05 11:42:00,
2015-03-05 04:52:00,7.0,3.0,-100.00,West,263,1.0,8.0,82,0.00,,,0.00,0.000000,,2015-03-05 11:52:00,
2015-03-05 05:23:00,7.0,3.0,-100.00,West,263,1.0,8.0,82,0.00,,,0.00,0.000000,,2015-03-05 12:23:00,
2015-03-05 05:32:00,7.0,3.0,-100.00,West,263,1.0,8.0,82,0.00,,,0.00,0.000000,,2015-03-05 12:32:00,
2015-03-05 05:42:00,7.0,3.0,-100.00,West,263,1.0,8.0,82,0.00,,,0.00,0.000000,,2015-03-05 12:42:00,
2015-03-05 05:52:00,9.0,5.0,-100.00,WSW,247,3.0,12.0,82,0.00,,,0.00,0.000000,,2015-03-05 12:52:00,
2015-03-05 06:22:00,9.0,5.0,-100.00,WSW,247,3.0,12.0,82,0.00,,,0.00,0.000000,,2015-03-05 13:22:00,
2015-03-05 06:32:00,9.0,5.0,-100.00,WSW,247,3.0,12.0,82,0.00,,,0.00,0.000000,,2015-03-05 13:32:00,
2015-03-05 06:43:00,9.0,5.0,-100.00,WSW,247,3.0,12.0,82,0.00,,,0.00,0.000000,,2015-03-05 13:43:00,
2015-03-05 06:52:00,10.0,6.0,-100.00,SW,227,5.0,11.0,84,0.00,,,0.00,4.000000,,2015-03-05 13:52:00,
2015-03-05 07:22:00,10.0,6.0,-100.00,SW,227,5.0,11.0,84,0.00,,,0.00,4.000000,,2015-03-05 14:22:00,
2015-03-05 07:32:00,10.0,6.0,-100.00,SW,227,5.0,11.0,84,0.00,,,0.00,4.000000,,2015-03-05 14:32:00,
2015-03-05 07:42:00,10.0,6.0,-100.00,SW,227,5.0,11.0,84,0.00,,,0.00,4.000000,,2015-03-05 14:42:00,
2015-03-05 07:52:00,12.0,7.0,-100.00,SW,217,4.0,11.0,79,0.00,,,0.00,72.000000,,2015-03-05 14:52:00,
2015-03-05 08:22:00,12.0,7.0,-100.00,SW,217,4.0,11.0,79,0.00,,,0.00,72.000000,,2015-03-05 15:22:00,
2015-03-05 08:32:00,12.0,7.0,-100.00,SW,217,4.0,11.0,79,0.00,,,0.00,72.000000,,2015-03-05 15:32:00,
2015-03-05 08:43:00,12.0,7.0,-100.00,SW,217,4.0,11.0,79,0.00,,,0.00,72.000000,,2015-03-05 15:43:00,
2015-03-05 08:52:00,17.0,8.0,-100.00,SW,231,6.0,13.0,68,0.00,,,-99.99,268.000000,,2015-03-05 15:52:00,
2015-03-05 09:23:00,17.0,8.0,-100.00,SW,231,6.0,13.0,68,0.00,,,-99.99,268.000000,,2015-03-05 16:23:00,
2015-03-05 09:33:00,17.0,8.0,-100.00,SW,231,6.0,13.0,68,0.00,,,-99.99,268.000000,,2015-03-05 16:33:00,
2015-03-05 09:44:00,17.0,8.0,-100.00,SW,231,6.0,13.0,68,0.00,,,-99.99,268.000000,,2015-03-05 16:44:00,
2015-03-05 09:52:00,19.0,9.0,-100.00,SW,235,6.0,17.0,64,0.00,,,-99.99,480.000000,,2015-03-05 16:52:00,
2015-03-05 10:23:00,19.0,9.0,-100.00,SW,235,6.0,17.0,64,0.00,,,-99.99,480.000000,,2015-03-05 17:23:00,
2015-03-05 10:33:00,19.0,9.0,-100.00,SW,235,6.0,17.0,64,0.00,,,-99.99,480.000000,,2015-03-05 17:33:00,
2015-03-05 10:43:00,19.0,9.0,-100.00,SW,235,6.0,17.0,64,0.00,,,-99.99,480.000000,,2015-03-05 17:43:00,
2015-03-05 10:52:00,20.0,9.0,-100.00,SSW,213,11.0,21.0,63,0.00,,,0.00,635.000000,,2015-03-05 17:52:00,
2015-03-05 11:23:00,20.0,9.0,-100.00,SSW,213,11.0,21.0,63,0.00,,,0.00,635.000000,,2015-03-05 18:23:00,
2015-03-05 11:32:00,20.0,9.0,-100.00,SSW,213,11.0,21.0,63,0.00,,,0.00,635.000000,,2015-03-05 18:32:00,
2015-03-05 11:43:00,20.0,9.0,-100.00,SSW,213,11.0,21.0,63,0.00,,,0.00,635.000000,,2015-03-05 18:43:00,
2015-03-05 11:52:00,23.0,13.0,-100.00,SW,219,11.0,22.0,64,0.00,,,0.00,803.000000,,2015-03-05 18:52:00,
2015-03-05 12:23:00,23.0,13.0,-100.00,SW,219,11.0,22.0,64,0.00,,,0.00,803.000000,,2015-03-05 19:23:00,
2015-03-05 12:32:00,23.0,13.0,-100.00,SW,219,11.0,22.0,64,0.00,,,0.00,803.000000,,2015-03-05 19:32:00,
2015-03-05 12:43:00,23.0,13.0,-100.00,SW,219,11.0,22.0,64,0.00,,,0.00,803.000000,,2015-03-05 19:43:00,
2015-03-05 12:52:00,25.0,14.0,-100.00,SW,221,10.0,21.0,62,0.00,,,0.00,899.000000,,2015-03-05 19:52:00,
2015-03-05 13:22:00,25.0,14.0,-100.00,SW,221,10.0,21.0,62,0.00,,,0.00,899.000000,,2015-03-05 20:22:00,
2015-03-05 13:32:00,25.0,14.0,-100.00,SW,221,10.0,21.0,62,0.00,,,0.00,899.000000,,2015-03-05 20:32:00,
2015-03-05 13:42:00,25.0,14.0,-100.00,SW,221,10.0,21.0,62,0.00,,,0.00,899.000000,,2015-03-05 20:42:00,
2015-03-05 13:52:00,26.0,14.0,-100.00,SW,224,10.0,20.0,60,0.00,,,0.00,870.000000,,2015-03-05 20:52:00,
2015-03-05 14:22:00,26.0,14.0,-100.00,SW,224,10.0,20.0,60,0.00,,,0.00,870.000000,,2015-03-05 21:22:00,
2015-03-05 14:33:00,26.0,14.0,-100.00,SW,224,10.0,20.0,60,0.00,,,0.00,870.000000,,2015-03-05 21:33:00,
2015-03-05 14:43:00,26.0,14.0,-100.00,SW,224,10.0,20.0,60,0.00,,,0.00,870.000000,,2015-03-05 21:43:00,
2015-03-05 14:52:00,28.0,16.0,-100.00,SW,217,10.0,18.0,59,0.00,,,-99.99,775.000000,,2015-03-05 21:52:00,
2015-03-05 15:23:00,28.0,16.0,-100.00,SW,217,10.0,18.0,59,0.00,,,-99.99,775.000000,,2015-03-05 22:23:00,
2015-03-05 15:33:00,28.0,16.0,-100.00,SW,217,10.0,18.0,59,0.00,,,-99.99,775.000000,,2015-03-05 22:33:00,
2015-03-05 15:42:00,28.0,16.0,-100.00,SW,217,10.0,18.0,59,0.00,,,-99.99,775.000000,,2015-03-05 22:42:00,